Current weather by "City, St" or "zip code"  
 

Current Conditions: TYNDALL DRONE

Mostly Clear


84.0 F

Last Updated on Jul 17 2024, 09:55 AM CDT
Humidity: 84%
Wind Speed: 4.7 mph
Barometer 30.02 in
Dewpoint: 78.6 F
Visibility: 10.00 mi
Precip: --
Heat Index: 95.5 F
Wind Chill: NA
Current conditions at:

TYNDALL DRONE (KTDR)

Lat: 30.03 Lon: 85.53

active severe weather and emergency alerts image weather storm and storm spotter reports image weather observation monitoring service image
Active
Alerts
Storm Reports Obs
Monitoring

Sign-up For Email & Text Message Weather Alert Notification Services



Advertise Here

Observation History for TYNDALL DRONE


Time Wind
(mph)
Vis
(mi)
Weather Precip (in) Temperature (F) Relative
Humidity
Wind
Chill
(F)
Heat
Index
(F)
Pressure
Air Dwpt altimeter
(in)
sea level
(mb)
Rmks
09:55 AM CDT 4.7 10.00 Mostly Clear -- 84.0 78.6 84% NA 95.5 30.02 1016.6
08:55 AM CDT E 5.8 10.00 Cloudy 00.02 79.2 76.8 93% NA 83.7 30.04 1017.3
08:44 AM CDT 8.1 10.00 Mostly Cloudy -- 78.8 77.0 94% NA 82.8 30.04 1017.3
08:29 AM CDT E 5.8 9.00 Light Rain -- 78.8 75.2 89% NA 82.4 30.03 1016.9
07:55 AM CDT 10.3 10.00 Thunderstorms 00.02 81.3 78.1 90% NA 89.4 30.03 1016.9
07:36 AM CDT 6.9 10.00 Thunderstorms and Rain -- 84.2 80.6 89% NA 98.2 30.01 1016.3
07:22 AM CDT 0.0 6.00 Thunderstorms and Rain and Fog/Mist -- 80.6 77.0 89% NA 87.1 30.01 1016.3
07:04 AM CDT W 5.7 5.00 Heavy Rain and Fog/Mist -- 80.6 77.0 89% NA 87.1 30.02 1016.6
07:02 AM CDT W 9.2 4.00 Heavy Rain and Fog/Mist -- 80.6 77.0 89% NA 87.1 30.02 1016.6
06:56 AM CDT W 12.8 7.00 Heavy Rain -- 82.4 77.0 84% NA 90.9 30.01 1016.3
05:55 AM CDT W 5.8 10.00 Mostly Clear -- 84.2 76.5 78% NA 93.6 29.98 1015.2
04:55 AM CDT 8.1 10.00 Mostly Clear -- 84.7 77.0 78% NA 95.2 29.95 1014.2
03:55 AM CDT SW 6.9 10.00 Clear -- 83.8 77.4 81% NA 93.9 29.94 1013.9
02:55 AM CDT SW 6.9 10.00 Mostly Clear -- 84.4 77.0 79% NA 94.5 29.95 1014.2
02:11 AM CDT SW 8.1 10.00 Partly Cloudy -- 84.2 77.0 79% NA 94.1 29.95 1014.2
01:57 AM CDT 8.1 10.00 Partly Cloudy -- 84.2 77.0 79% NA 94.1 29.95 1014.2
01:55 AM CDT 8.1 10.00 Mostly Cloudy -- 84.4 77.4 80% NA 94.8 29.95 1014.2
12:55 AM CDT 10.3 10.00 Mostly Clear -- 84.4 77.4 80% NA 94.8 29.95 1014.2
11:55 PM CDT 8.1 10.00 Clear -- 84.0 75.6 76% NA 92.5 29.97 1014.9
10:55 PM CDT S 8.1 10.00 Clear -- 82.4 75.2 79% NA 89.4 29.98 1015.2
09:55 PM CDT SW 4.7 10.00 Mostly Clear -- 83.7 76.8 80% NA 93.0 30.00 1015.9
08:55 PM CDT SW 4.7 10.00 Mostly Clear -- 84.4 77.0 79% NA 94.5 30.00 1015.9
07:55 PM CDT SW 4.7 10.00 Clear -- 85.5 77.4 77% NA 96.6 29.99 1015.6
06:55 PM CDT 5.8 10.00 Mostly Clear -- 87.3 76.6 71% NA 98.6 29.98 1015.2

Regional Weather Observation